This demonstration page uses our WeatherBlox Daily Observations layout. Learn more.

Left ArrowRight Arrow

Hourly Observations for April 14, 2020

Temp ( °F °C ) Dew Point ( °F °C ) Humidity (%) Winds ( mph kmh ) Pressure ( in mb ) Visibility ( mi km ) Precip ( " mm )
12:52 am 00:52 Clear 28 -2.2 14 -10 56 56 W 6 9 30.32 1027 10 16 0.00 0.00
1:52 am 01:52 Mostly Cloudy 29 -1.7 15 -9.4 56 56 WSW 5 7 30.32 1027 10 16 0.00 0.00
2:52 am 02:52 Mostly Clear 28 -2.2 16 -8.9 60 60 W 8 13 30.31 1026 10 16 0.00 0.00
3:52 am 03:52 Clear 28 -2.2 16 -8.9 60 60 WNW 10 17 30.31 1026 10 16 0.00 0.00
4:52 am 04:52 Clear 26 -3.3 16 -8.9 66 66 WNW 8 13 30.31 1026 10 16 0.00 0.00
5:52 am 05:52 Mostly Cloudy 26 -3.3 16 -8.9 66 66 WNW 8 13 30.30 1026 10 16 0.00 0.00
6:52 am 06:52 Mostly Sunny 25 -3.9 15 -9.4 66 66 W 8 13 30.32 1027 10 16 0.00 0.00
7:52 am 07:52 Mostly Sunny 27 -2.8 17 -8.3 66 66 WSW 6 9 30.33 1027 10 16 0.00 0.00
8:52 am 08:52 Mostly Sunny 31 -0.6 17 -8.3 56 56 W 13 20 30.32 1027 10 16 0.00 0.00
9:52 am 09:52 Mostly Sunny 35 1.7 16 -8.9 46 46 W 10 17 30.31 1026 10 16 0.00 0.00
10:52 am 10:52 Mostly Sunny 37 2.8 14 -10 39 39 WSW 15 24 30.29 1026 10 16 0.00 0.00
11:52 am 11:52 Partly Cloudy 40 4.4 11 -11.7 30 30 W 16 26 30.27 1025 10 16 0.00 0.00
12:52 pm 12:52 Partly Cloudy 41 5 12 -11.1 30 30 WNW 15 24 30.23 1024 10 16 0.00 0.00
1:52 pm 13:52 Partly Cloudy 43 6.1 13 -10.6 29 29 W 22 35 30.19 1022 10 16 0.00 0.00
2:52 pm 14:52 Mostly Cloudy 45 7.2 13 -10.6 27 27 WNW 22 35 30.15 1021 10 16 0.00 0.00
3:52 pm 15:52 Partly Cloudy 46 7.8 13 -10.6 26 26 W 18 30 30.10 1019 10 16 0.00 0.00
4:52 pm 16:52 Mostly Cloudy 46 7.8 13 -10.6 26 26 WSW 9 15 30.08 1019 10 16 0.00 0.00
5:52 pm 17:52 Mostly Cloudy 45 7.2 17 -8.3 33 33 VRB 5 7 30.06 1018 10 16 0.00 0.00
6:52 pm 18:52 Mostly Cloudy 44 6.7 22 -5.6 41 41 S 9 15 30.04 1017 10 16 0.00 0.00
7:33 pm 19:33 Cloudy 44 6.7 22 -5.6 41 41 N 13 20 30.03 1017 10 16 0.00 0.00
7:52 pm 19:52 Cloudy 42 5.6 23 -5 47 47 NNE 17 28 30.03 1017 10 16 0.00 0.00
8:52 pm 20:52 Cloudy 39 3.9 21 -6.1 48 48 N 20 31 30.06 1018 10 16 0.00 0.00
9:52 pm 21:52 Cloudy 36 2.2 22 -5.6 57 57 ENE 15 24 30.09 1019 10 16 0.00 0.00
10:52 pm 22:52 Cloudy 33 0.6 26 -3.3 75 75 N 12 19 30.11 1020 10 16 0.00 0.00
11:52 pm 23:52 Cloudy 31 -0.6 25 -3.9 79 79 NNE 9 15 30.13 1020 10 16 0.00 0.00

Powered by AerisWeather